Temp
24 24 25 27 34 36 34 33 35 33 33 34 34 33 33 32 31 30 29 29 27 26 24 23 22 21 21 22 21 21 21 22 22 21 21 21 21 21 21 21 21 21 21 21 21 21 21 21 21
25 25 26 32 35 35 34 34 34 34 34 34 33 32 32 30 30 28 28 27 27 27 25 24 22 21 21 21 21 21 21 21 21 21 21 21 21 21 21 21 21 21 21 21 21 21 21 21 21
26 27 33 35 36 34 34 34 34 33 34 34 32 33 31 29 28 29 28 27 27 26 26 23 22 22 21 22 21 21 21 21 21 21 21 21 21 21 21 21 21 21 21 21 21 21 21 21 21
29 32 34 36 35 34 34 34 34 34 34 34 33 31 29 28 29 28 27 27 27 26 26 22 21 21 21 21 21 21 21 21 22 21 22 22 22 21 21 21 21 21 21 21 21 21 21 21 20
30 35 37 36 35 35 35 34 35 34 34 33 33 30 28 28 27 27 27 27 27 27 26 23 21 22 21 22 21 21 21 21 21 21 21 21 21 22 21 21 21 21 21 21 21 21 21 21 21
36 36 37 36 35 35 35 34 34 34 33 32 32 31 29 27 27 27 27 27 27 27 26 24 22 22 22 22 22 22 21 21 21 21 21 22 21 22 22 21 21 21 21 21 21 21 21 21 21
35 37 37 36 35 35 35 35 34 34 34 33 33 32 29 29 28 27 27 27 27 27 27 25 24 22 21 22 21 21 21 21 22 22 21 21 21 21 21 21 21 21 21 21 21 21 21 21 21
36 36 37 37 36 35 35 34 34 35 33 34 34 32 30 29 27 28 28 28 27 27 26 26 25 24 24 23 21 22 22 22 21 21 22 22 22 22 22 22 22 21 21 21 21 21 21 21 21
37 37 37 37 36 35 34 34 34 34 33 33 33 34 33 28 28 28 28 28 27 26 26 26 25 25 25 26 24 22 22 22 22 22 22 23 23 23 22 22 22 22 21 22 21 21 21 21 21
38 37 37 37 37 36 35 35 34 33 33 31 31 32 29 28 28 29 29 28 27 27 27 27 27 27 26 26 25 24 24 25 24 24 23 23 23 22 23 23 22 22 21 21 21 22 21 21 25
38 37 38 37 36 37 35 35 35 34 33 34 32 30 30 29 29 29 29 29 28 27 27 27 27 26 26 26 25 25 26 25 25 23 23 24 23 22 23 23 24 23 23 23 22 23 23 24 25
37 38 37 35 35 36 35 36 35 35 34 35 33 31 31 30 31 31 30 29 28 27 27 27 26 25 25 26 25 26 26 25 26 25 23 24 24 23 23 24 23 23 22 22 21 21 22 23 23
37 37 36 35 35 36 35 35 35 34 34 34 33 31 31 32 31 31 30 30 28 27 27 26 26 24 24 24 25 26 26 25 26 25 25 24 24 25 24 23 23 23 22 22 21 21 20 20 22
38 37 36 36 36 35 35 35 35 34 34 32 32 32 32 32 32 31 30 30 28 27 27 27 26 25 24 24 24 25 25 25 25 25 25 24 24 25 24 24 22 22 21 21 21 21 21 21 22
38 37 37 36 36 36 36 34 35 34 33 32 32 32 32 33 32 31 30 29 28 28 28 27 26 26 24 24 24 24 25 26 26 26 24 23 23 24 23 24 24 25 23 22 20 21 22 21 22
38 38 38 37 36 36 36 36 35 34 33 33 33 32 32 32 32 31 30 28 28 28 27 27 27 27 25 25 24 25 25 25 26 26 25 25 24 23 23 24 25 24 23 23 21 20 21 22 22
38 37 37 37 36 37 36 37 35 34 35 34 33 33 32 32 32 31 30 29 27 25 26 25 26 27 26 25 25 25 25 25 26 26 26 26 24 24 23 24 25 23 24 22 21 21 22 22 21
37 37 37 37 37 36 37 37 36 34 35 35 34 33 33 33 33 32 30 30 30 27 25 25 26 26 26 25 24 25 26 25 26 26 26 25 24 23 23 25 24 23 22 23 22 22 23 22 23
37 37 37 37 37 36 37 38 38 36 35 35 35 34 34 34 34 33 31 30 30 29 27 26 26 26 25 25 26 26 26 26 26 26 25 24 24 23 23 25 24 23 23 23 22 22 22 22 22
37 37 37 38 37 37 37 38 38 38 35 35 35 35 34 34 34 34 32 31 30 29 28 27 26 25 24 26 26 27 27 27 26 25 24 24 24 23 24 24 24 23 24 23 23 22 23 25 25
37 37 38 36 37 38 37 37 38 37 36 35 36 36 36 35 34 35 33 32 31 30 29 28 26 26 25 26 25 25 25 25 25 24 24 24 23 23 23 23 23 23 23 25 23 24 23 25 25
36 38 37 36 36 36 37 36 38 38 36 34 35 36 37 35 35 36 36 33 32 31 29 28 27 25 25 25 26 26 27 26 26 25 25 24 23 23 23 23 23 23 24 23 24 24 22 22 22
36 37 37 37 37 37 37 36 38 38 39 39 36 36 36 37 36 36 36 35 33 32 30 28 27 26 26 25 26 26 25 27 26 25 24 24 23 23 23 23 23 23 24 23 22 22 22 23 23
37 36 36 37 37 36 38 37 38 39 39 39 39 37 37 37 36 37 35 34 32 31 30 28 26 25 25 25 24 25 26 26 26 25 25 24 24 24 23 23 22 22 22 22 22 21 21 21 22
35 36 35 35 35 35 39 36 38 39 40 40 39 38 37 37 36 36 36 35 32 30 29 28 26 25 25 25 25 25 25 25 26 25 26 26 26 25 23 22 22 23 21 21 21 21 21 21 21
35 37 36 33 35 37 38 35 38 40 40 40 39 38 37 37 37 36 36 34 32 30 29 28 26 25 25 25 25 25 25 26 26 26 26 26 26 25 23 22 22 22 21 21 21 22 22 20 21
36 35 38 37 38 36 38 38 39 40 40 40 40 39 38 37 37 36 36 34 33 31 29 28 27 26 25 25 25 25 25 26 26 25 24 25 25 24 22 22 22 22 21 21 20 22 21 20 21
36 37 35 36 34 34 36 36 37 38 39 40 40 40 40 38 37 37 36 35 33 32 30 29 27 26 26 26 25 25 25 25 24 24 24 24 24 23 22 22 22 22 22 21 20 22 21 20 20
35 35 36 37 37 36 35 37 40 38 39 39 40 39 39 39 37 37 36 34 32 31 30 29 28 27 26 26 25 25 25 24 24 24 24 23 23 23 22 22 22 22 22 21 20 20 19 19 19
37 37 37 35 35 36 36 37 40 40 40 40 39 39 37 37 37 36 36 33 32 30 29 29 27 27 26 25 24 24 24 24 24 24 24 23 23 22 22 21 21 20 20 19 19 19 18 18 18
Height
757 758 758 756 758 746 768 771 748 760 760 751 752 759 764 766 774 792 786 791 796 801 806 810 812 814 815 817 818 820 822 823 824 825 826 827 827 829 830 831 832 832 832 833 833 834 836 837 837
759 760 758 745 755 770 775 757 763 756 752 750 756 761 765 779 774 782 788 794 799 802 807 811 814 815 817 818 820 821 823 825 825 827 828 829 829 830 831 832 833 834 834 834 835 835 836 838 839
760 759 749 750 757 775 777 760 760 757 752 754 764 759 766 781 783 785 790 796 800 804 808 812 815 817 819 819 821 823 825 826 828 829 830 830 831 832 833 834 834 835 836 836 836 837 838 838 840
756 752 747 754 770 766 762 759 755 759 756 755 758 774 777 781 783 787 794 798 802 806 809 813 816 818 819 821 823 825 826 828 829 830 831 832 832 833 834 835 836 836 836 836 837 838 839 839 841
755 745 749 759 767 761 756 754 753 757 759 760 759 777 783 787 789 792 796 799 803 807 811 815 817 820 821 822 824 826 828 829 831 832 833 833 834 834 836 836 837 838 838 838 838 839 840 840 841
748 744 756 768 766 758 755 753 753 757 759 764 768 773 784 788 790 794 798 801 804 808 812 816 818 821 823 823 825 827 829 830 832 833 834 835 836 836 837 837 838 839 839 839 839 840 840 841 841
754 752 763 763 766 763 759 749 756 757 762 765 762 776 783 787 792 795 799 802 805 809 812 817 820 822 824 826 827 828 830 831 832 833 835 836 837 837 838 839 840 840 840 840 840 840 840 841 841
746 750 757 756 767 769 755 753 752 755 766 760 760 775 786 785 792 796 799 802 806 809 813 816 820 822 825 827 829 830 831 832 833 834 835 837 837 838 838 839 840 841 840 841 841 840 841 840 841
742 755 763 761 761 762 755 759 755 755 763 763 765 763 769 786 792 796 800 803 807 810 812 815 819 821 824 826 829 831 832 832 833 834 836 837 837 838 837 839 840 840 840 840 840 840 839 839 839
747 758 762 748 746 753 754 755 759 764 768 772 771 770 780 787 792 795 797 801 805 809 812 814 817 819 823 825 828 831 832 833 834 835 836 835 837 838 838 838 838 838 838 838 838 838 838 838 837
747 761 747 747 745 743 754 757 754 763 770 763 771 775 781 786 791 793 797 801 804 809 812 814 817 820 823 825 828 829 830 832 833 834 836 836 836 836 837 837 836 836 836 836 836 836 835 834 833
757 745 747 749 749 749 755 752 759 758 762 754 763 772 778 783 787 790 794 799 804 808 811 814 817 820 823 825 828 828 829 831 831 832 834 835 835 834 835 835 835 833 834 833 832 833 834 833 832
752 749 746 747 749 748 751 758 758 761 756 759 766 774 778 781 785 788 793 798 804 808 811 813 816 819 823 825 827 828 829 830 830 831 832 833 832 832 832 832 831 831 830 830 829 829 828 829 829
748 747 750 747 749 751 756 759 755 760 759 765 769 774 777 779 783 788 793 797 801 805 809 812 815 818 821 823 826 828 829 830 830 830 830 831 831 830 829 829 829 827 826 826 825 825 825 826 824
745 754 750 750 748 752 750 768 763 757 760 767 770 773 774 778 783 787 792 796 800 803 806 809 813 816 819 822 824 826 827 828 829 829 830 830 829 828 828 827 825 825 824 823 822 820 820 821 820
754 750 762 752 749 749 754 765 755 755 760 765 767 771 774 776 780 786 790 795 799 802 804 808 811 813 816 819 822 824 825 826 827 827 827 828 827 826 825 824 823 822 821 820 819 818 819 818 817
756 769 768 761 747 749 754 758 754 753 755 762 765 768 771 773 777 782 787 792 796 799 803 806 809 811 815 818 820 822 824 824 825 824 824 825 824 824 825 823 822 821 819 818 817 817 817 815 814
770 768 763 767 754 752 754 752 746 752 752 755 759 763 766 769 771 777 783 787 791 795 799 804 807 810 813 816 819 821 822 822 822 822 822 823 823 823 823 822 821 820 818 817 817 817 816 814 813
758 763 766 757 752 757 752 749 740 743 751 752 753 757 759 762 764 770 778 783 787 791 796 800 803 806 810 813 816 818 818 819 820 820 821 822 821 821 822 821 821 820 819 818 817 816 815 814 812
759 764 761 752 749 754 750 750 736 734 745 745 747 749 754 756 759 765 771 777 782 787 792 797 801 805 807 810 812 814 816 817 818 820 820 822 820 820 821 821 820 820 819 817 816 816 813 809 809
758 762 756 767 754 744 753 752 743 738 738 740 740 740 743 750 754 758 764 770 775 781 786 792 797 801 804 808 810 813 814 817 818 818 819 819 820 820 821 820 820 820 818 816 816 814 813 810 808
764 742 755 763 769 776 750 779 743 736 741 741 737 737 736 742 746 750 754 762 769 774 781 787 792 798 802 805 807 810 811 814 815 817 818 818 818 820 822 820 820 820 818 818 816 814 813 811 811
757 741 753 755 762 759 756 770 743 730 735 724 730 729 730 732 738 744 748 752 761 769 775 782 788 793 799 802 804 807 810 811 813 815 816 818 819 820 821 821 821 820 819 818 818 817 815 812 811
742 754 755 752 758 779 754 759 751 734 731 723 718 720 723 727 733 738 745 750 759 766 773 778 783 788 793 797 801 804 807 810 811 814 815 817 818 820 821 821 822 822 821 820 819 818 816 815 813
751 760 782 789 782 782 737 760 747 722 714 714 717 715 717 720 729 733 739 746 756 762 767 774 779 783 787 793 797 801 804 808 810 812 811 813 816 818 821 821 821 822 822 821 820 819 818 815 814
754 750 769 799 783 761 737 770 744 712 709 707 709 711 713 716 721 728 734 742 751 756 763 768 774 780 785 790 794 797 802 805 807 810 812 813 815 818 821 822 823 823 823 822 821 820 819 817 815
746 761 732 750 740 761 743 735 722 711 710 705 704 706 712 714 717 723 729 738 744 752 759 765 772 780 786 790 793 795 799 804 805 809 812 814 817 818 821 822 822 823 823 823 821 819 819 817 815
740 729 762 754 784 787 757 754 749 728 721 707 702 703 701 708 715 719 725 732 740 748 757 765 772 777 783 788 792 797 800 802 806 809 813 817 819 820 821 821 822 822 822 822 821 819 818 818 815
750 750 744 734 741 766 769 751 707 718 712 710 705 701 701 702 709 714 721 729 739 747 753 762 769 774 780 784 790 794 798 802 804 808 811 816 819 820 822 822 822 822 822 822 821 820 820 818 817
724 734 732 756 764 749 749 747 697 701 701 699 702 700 702 703 704 711 718 729 738 746 754 762 767 773 779 783 787 792 795 800 805 808 810 814 817 820 820 822 822 821 821 821 820 820 820 820 818
Wind_Speed
11 8 4 3 3 4 10 8 3 7 4 4 9 2 8 10 7 5 22 16 22 21 19 16 16 14 14 15 14 14 15 15 13 13 12 11 10 9 9 7 7 6 6 7 7 7 8 8 9
8 6 3 3 1 9 10 7 9 8 6 8 8 3 3 11 11 15 21 20 22 21 19 17 16 15 14 15 14 14 14 14 13 11 10 10 9 8 7 7 6 7 7 8 7 8 8 8 8
6 2 4 2 5 9 9 8 10 10 8 6 4 5 3 5 9 21 19 25 21 19 18 17 16 16 14 14 14 14 13 12 11 9 9 8 8 7 7 7 7 8 7 7 7 8 7 7 7
3 5 4 5 9 10 9 5 8 8 7 3 6 7 7 5 18 12 26 23 20 18 17 18 15 14 13 13 12 12 12 10 8 8 9 7 7 6 7 7 7 7 7 6 7 7 7 7 7
9 4 1 8 9 7 5 3 3 3 6 6 1 7 9 8 11 23 25 22 20 18 16 16 16 12 12 12 12 11 9 8 9 8 8 8 7 6 6 7 6 6 5 5 5 5 6 5 6
4 4 5 11 11 6 4 3 2 6 6 8 11 14 9 12 20 23 21 19 19 18 16 15 16 12 12 10 12 11 9 9 8 7 6 6 6 5 5 5 5 4 4 4 3 4 5 4 4
5 5 9 7 8 6 5 4 1 4 7 9 10 10 10 14 19 21 20 18 18 18 16 15 15 12 11 9 11 10 10 8 7 7 6 6 5 4 3 3 3 3 3 2 4 2 2 3 4
4 4 5 6 9 7 5 3 3 2 9 12 4 5 12 18 22 20 19 18 18 17 17 15 15 12 11 9 9 9 8 8 8 6 5 4 3 3 1 0 2 1 2 2 2 3 3 4 5
3 4 6 8 7 5 5 5 3 2 10 3 3 4 20 24 23 21 19 18 18 17 17 16 16 14 12 10 9 8 7 7 7 3 3 2 2 2 1 4 4 2 3 2 3 5 5 7 8
5 4 9 6 3 3 6 3 7 5 9 5 8 12 24 26 24 21 20 19 19 18 17 16 15 15 13 10 9 9 8 7 6 5 3 4 3 4 4 5 6 5 5 5 5 7 8 8 10
3 6 10 6 2 4 7 5 2 4 6 6 11 19 21 24 22 20 18 18 18 17 16 15 14 14 13 10 9 8 8 6 6 5 5 5 8 6 6 5 5 5 6 5 6 6 8 12 9
5 7 7 3 4 5 7 7 4 1 5 3 13 20 20 20 19 20 18 17 17 17 16 15 15 13 13 11 10 8 7 7 6 6 6 5 5 7 8 7 6 8 8 8 9 11 10 11 12
5 9 5 4 5 6 7 6 5 7 8 13 16 18 18 17 19 19 16 15 15 16 16 17 16 15 13 12 10 8 8 7 6 5 5 6 6 6 6 9 11 10 11 10 9 9 12 13 14
8 5 3 2 5 6 5 6 6 7 12 14 17 17 15 17 19 18 16 15 16 16 16 16 17 16 15 13 11 9 9 8 7 6 6 7 8 8 8 9 10 10 9 12 15 11 10 12 13
4 4 5 2 3 4 4 7 5 12 13 16 15 16 15 16 19 18 17 15 15 15 15 17 17 16 16 14 13 11 10 9 8 7 7 8 8 8 9 8 8 9 9 10 12 15 14 14 12
7 6 6 5 3 4 6 6 11 14 15 16 16 15 15 17 19 19 18 15 14 11 15 16 16 16 17 15 13 11 10 9 8 7 7 7 7 7 7 8 8 8 9 10 11 10 10 10 10
6 5 3 5 2 2 5 6 8 14 15 15 16 17 16 16 18 20 19 18 18 20 14 18 16 15 15 14 13 12 11 10 9 9 9 10 9 7 7 7 7 7 8 6 6 6 8 6 8
4 7 3 4 4 6 9 9 11 12 15 16 16 17 17 17 19 22 21 20 19 18 20 14 16 15 14 13 13 12 11 11 10 10 11 10 9 7 7 5 5 4 3 3 4 6 7 8 10
5 8 6 5 5 6 5 8 7 13 14 15 16 17 18 19 18 22 22 21 20 20 20 21 16 17 17 16 14 13 12 11 9 9 9 8 6 5 4 5 5 3 2 4 6 8 9 9 7
14 12 11 3 3 6 7 11 5 7 13 16 18 18 18 17 16 18 21 21 23 22 21 21 20 17 16 14 15 13 10 9 7 8 8 7 6 5 4 4 4 4 7 6 7 8 10 9 6
16 15 12 5 9 11 7 16 6 4 7 11 15 18 18 18 18 17 19 21 21 22 22 23 23 20 16 11 12 12 8 6 5 5 7 7 5 5 2 1 3 5 7 8 7 7 7 10 9
19 14 9 8 7 9 0 11 7 5 7 12 15 18 18 19 18 17 18 19 20 20 19 20 21 22 18 14 11 13 9 7 3 4 3 5 6 4 2 0 2 4 6 5 6 7 9 7 9
16 6 10 9 11 12 15 8 10 4 7 5 12 16 20 18 18 17 15 17 18 17 18 18 18 18 17 15 12 12 11 7 5 4 4 5 6 4 3 1 3 4 4 4 5 7 9 9 8
15 9 12 11 12 13 17 8 11 5 2 7 4 9 17 19 18 18 18 16 15 16 16 17 19 19 18 15 15 13 10 9 6 7 7 6 6 5 3 2 3 3 3 3 5 6 8 9 9
10 16 12 13 13 12 6 7 12 11 10 5 6 2 12 18 17 17 17 17 18 20 20 20 21 22 20 18 16 14 13 11 8 9 9 8 6 5 4 3 3 3 2 2 4 5 7 8 9
13 17 13 14 13 14 6 9 12 3 9 5 6 4 7 15 17 18 17 20 21 22 22 22 24 22 21 19 16 15 14 11 8 8 7 6 6 6 5 3 2 3 1 1 3 5 8 8 9
13 13 17 19 8 9 6 5 8 14 8 8 8 4 8 11 16 18 18 19 20 21 23 24 24 21 19 17 17 18 16 11 9 11 10 8 8 6 5 3 2 2 1 2 3 5 7 9 10
16 11 12 11 15 15 13 9 10 8 11 10 9 4 7 9 13 15 15 19 17 19 20 20 20 21 19 16 15 15 14 13 12 12 9 9 7 5 5 3 1 2 3 4 5 6 6 8 9
11 13 11 11 13 13 12 9 5 5 10 10 11 3 3 8 13 15 15 18 15 16 19 19 19 20 18 16 15 15 14 13 15 14 12 10 7 5 2 1 1 4 5 5 6 6 6 8 8
10 19 18 10 15 12 13 12 11 8 13 9 10 2 2 2 10 13 15 17 18 16 16 16 17 18 17 16 17 15 13 12 12 13 13 10 7 4 1 1 1 1 3 4 5 6 6 7 8
Wind_Direction
136 146 158 237 213 74 58 63 74 94 107 53 121 61 63 30 6 60 137 141 143 141 144 141 140 135 136 131 131 128 127 129 129 126 126 126 125 124 119 117 112 103 105 97 90 103 95 98 97
150 142 217 280 337 69 76 65 70 59 69 126 114 122 76 82 57 131 136 146 146 142 144 145 147 134 132 135 129 127 128 132 129 127 129 126 126 127 125 121 118 115 106 112 100 107 99 103 103
165 259 287 320 26 54 80 67 97 93 102 131 102 38 44 65 120 137 140 147 147 144 144 150 148 141 135 132 129 128 128 123 125 131 133 132 124 123 129 135 117 116 114 109 105 107 104 106 105
239 192 221 27 62 77 60 93 131 104 96 55 88 83 89 88 135 134 144 147 146 146 146 156 148 144 139 135 140 135 127 132 135 127 135 140 143 124 132 132 125 119 121 118 114 116 113 112 110
266 249 333 78 80 80 75 57 162 84 87 106 116 95 100 119 126 138 146 150 148 148 146 153 153 147 149 152 144 142 145 148 144 144 139 141 146 149 136 124 125 120 122 121 125 125 129 127 120
259 275 32 47 60 78 91 139 208 65 91 109 110 115 89 124 141 146 149 150 151 150 150 154 158 152 152 155 158 152 156 153 152 145 143 143 144 150 139 136 144 136 141 123 129 136 138 144 146
293 315 18 9 48 71 88 155 243 79 110 104 132 112 119 145 147 151 152 152 151 153 151 156 162 163 160 152 157 150 161 161 156 159 151 158 159 162 161 167 172 161 168 166 168 167 166 188 193
285 289 1 59 20 68 119 121 126 110 75 120 125 145 161 151 155 154 155 157 156 157 157 160 166 165 169 167 173 163 161 156 159 166 165 159 186 186 205 261 261 202 199 208 218 216 229 242 234
278 272 17 28 15 62 142 140 105 86 135 107 74 131 132 150 156 157 159 161 162 170 166 169 170 174 173 169 178 175 182 183 176 182 178 148 221 221 268 240 255 273 287 263 248 245 248 246 251
281 341 2 351 44 63 151 160 135 150 140 138 109 109 134 151 160 165 167 165 175 176 177 177 176 176 174 178 170 181 187 190 189 186 188 184 223 239 230 250 262 254 260 269 265 263 255 257 249
13 357 346 19 70 137 131 135 127 129 191 163 152 144 151 157 166 172 175 174 178 178 182 183 183 180 181 184 182 185 189 196 197 201 204 217 235 239 249 257 263 250 272 276 273 270 267 274 248
305 10 3 37 141 131 144 125 142 133 13 113 145 156 157 166 172 177 178 178 178 184 187 188 187 186 191 188 191 193 197 202 202 201 209 228 243 258 246 263 264 259 253 254 276 287 286 276 262
328 357 37 99 127 121 137 137 102 106 89 118 141 157 166 170 174 177 177 176 182 189 192 194 192 191 193 198 198 205 207 204 210 218 225 236 258 265 271 267 268 264 267 261 260 278 293 270 255
340 346 74 98 117 133 146 158 185 131 125 134 152 164 170 173 171 170 178 180 186 191 194 196 199 196 194 198 203 210 219 222 230 241 250 257 264 273 279 277 267 277 267 258 254 268 272 279 259
318 243 153 111 164 125 172 178 194 145 152 149 162 172 173 175 174 178 182 187 189 194 192 198 200 199 200 203 205 211 219 224 236 245 258 264 264 270 271 285 288 291 286 269 256 249 260 274 261
278 246 243 79 209 132 236 95 139 163 168 164 166 176 182 181 183 185 189 193 201 201 198 199 201 200 201 202 205 214 220 229 238 248 258 270 265 275 277 283 297 298 295 277 258 248 248 256 263
218 279 345 122 190 294 247 354 136 176 184 174 177 179 186 190 193 192 197 194 203 205 199 197 203 205 202 204 208 216 224 233 245 255 263 265 275 282 297 275 296 302 302 284 273 251 254 266 270
176 245 171 24 53 242 281 278 158 189 197 189 185 186 191 198 199 198 200 201 204 201 212 203 207 205 205 205 209 215 224 236 248 261 269 266 269 271 255 274 294 305 297 282 318 302 287 284 285
256 268 275 101 39 304 290 305 295 180 202 201 200 192 196 201 198 197 201 204 208 211 204 201 200 200 198 203 206 213 222 237 251 266 270 256 247 232 239 276 287 269 294 308 298 305 300 295 283
238 249 246 272 223 302 295 295 354 198 205 211 206 202 203 200 202 199 202 205 208 211 212 207 203 196 195 206 212 217 224 239 257 270 267 246 214 215 234 278 294 292 304 311 312 309 303 286 304
239 247 254 296 313 269 274 265 186 162 220 219 218 215 205 204 199 199 198 205 211 210 210 211 208 201 197 199 205 208 216 229 258 269 268 246 210 207 222 300 330 321 322 328 322 318 308 312 312
242 217 258 253 266 276 243 295 223 155 213 210 217 217 214 204 204 204 198 198 209 211 208 207 207 210 209 206 213 213 216 222 256 256 239 204 173 181 226 320 353 348 338 344 338 340 339 348 338
246 228 253 260 265 262 263 251 278 190 273 211 213 214 217 205 206 204 207 201 203 201 197 193 192 198 205 206 206 202 206 213 216 211 200 161 151 166 152 50 20 2 348 10 8 353 350 336 325
245 217 236 249 258 261 256 243 275 248 324 322 144 212 208 208 205 202 203 192 191 188 185 183 186 185 188 192 192 194 200 206 205 193 185 174 159 148 118 81 38 24 29 31 17 11 4 354 345
218 226 237 234 233 245 247 244 257 313 295 314 341 218 206 198 196 200 195 190 185 185 182 180 182 182 183 184 187 193 194 199 199 188 178 164 154 161 138 111 83 54 74 51 31 20 11 6 358
217 234 232 231 239 246 144 252 259 328 316 279 292 235 194 201 191 200 193 193 189 188 182 180 184 183 179 182 183 183 188 188 185 181 165 170 165 154 141 111 68 34 81 69 14 357 359 1 356
196 234 247 266 243 281 268 216 255 257 295 271 276 241 196 194 193 193 193 192 194 188 185 185 181 181 181 183 181 178 180 187 174 163 164 162 166 154 140 131 114 34 297 312 323 352 352 350 349
258 268 209 230 254 240 251 239 276 283 306 308 342 316 207 177 189 192 189 187 188 183 183 183 181 180 182 180 180 182 179 178 170 160 165 171 166 161 158 160 199 333 330 311 317 329 357 348 352
199 233 239 273 224 257 252 250 260 316 298 327 322 345 335 185 181 184 181 183 167 170 174 179 176 176 178 175 178 177 177 178 169 167 168 171 174 176 187 202 317 333 333 335 331 338 350 351 357
273 213 231 224 228 240 277 287 303 286 289 292 303 34 18 273 174 181 177 162 150 153 158 166 167 165 169 162 161 172 167 170 180 176 166 167 179 189 193 339 37 32 2 355 354 345 356 1 2